Cando, ND

3:40 AM CDT on May 30, 2017 (GMT -0500)
Cando

Weather History for K9D7 - December, 2013

Change the Weather History Date:

Wednesday, December 4, 2013

  Actual Average (KDVL) Record (KDVL)
Temperature  
Mean Temperature 4 °F -  
Max Temperature 6 °F 26 °F 48 °F (2015)
Min Temperature 1 °F 9 °F -22 °F (1964)
Degree Days  
Heating Degree Days 60    
Moisture  
Dew Point 0 °F    
Average Humidity 81    
Maximum Humidity 85    
Minimum Humidity 78    
Precipitation  
Precipitation 2.59 in - - ()
Sea Level Pressure  
Sea Level Pressure 29.91 in    
Wind  
Wind Speed 23 mph (North)    
Max Wind Speed 29 mph    
Max Gust Speed 34 mph    
Visibility 2 miles    
Events Rain , Snow    
Averages and records for this station are not official NWS values.
T = Trace of Precipitation, MM = Missing Value Source: NWS Daily Summary

Daily Weather History Graph

Daily Weather History Graph

Search for Another Location

Airport or City:

Trip Planner

Search our weather history database for the weather conditions in past years. The results will help you decide how hot, cold, wet, or windy it might be!

Date:

Astronomy

Dec. 04, 2013 Rise Set
Actual Time 8:11 AM CST 4:42 PM CST
Civil Twilight 7:35 AM CST 5:19 PM CST
Nautical Twilight 6:55 AM CST 5:58 PM CST
Astronomical Twilight 6:17 AM CST 6:36 PM CST
Moon 9:37 AM CST (12/4) 6:59 PM CST (12/4)
Length of Visible Light 9h 43m
Length of Day
8h 31m
Waxing Crescent, 4% of the Moon is Illuminated
Dec 4
Waxing Crescent
Dec 9
First Quarter
Dec 17
Full
Dec 25
Last Quarter
Jan 1
New

Hourly Weather History & Observations

Time (CST) Temp. Windchill Dew Point Humidity Pressure Visibility Wind Dir Wind Speed Gust Speed Precip Events Conditions
12:15 AM 6.8 °F -13.4 °F 1.4 °F 79% 29.98 in 2.0 mi NNE 20.7 mph 29.9 mph 0.01 in Rain Light Freezing Rain
12:35 AM 6.8 °F -15.1 °F 1.4 °F 79% 29.98 in 1.8 mi NNE 25.3 mph 29.9 mph 0.03 in Rain Light Freezing Rain
12:55 AM 5.0 °F -15.2 °F 1.4 °F 85% 29.98 in 2.0 mi North 19.6 mph 29.9 mph 0.05 in Rain Light Freezing Rain
1:15 AM 5.0 °F -15.2 °F 1.4 °F 85% 29.97 in 3.0 mi North 19.6 mph 29.9 mph N/A Rain Light Freezing Rain
1:35 AM 5.0 °F -15.7 °F 1.4 °F 85% 29.98 in 1.2 mi North 20.7 mph 29.9 mph 0.03 in Snow Light Snow
1:55 AM 5.0 °F -17.9 °F 1.4 °F 85% 29.97 in 1.5 mi North 26.5 mph 32.2 mph 0.09 in Rain Light Freezing Rain
2:15 AM 5.0 °F -15.2 °F 1.4 °F 85% 29.97 in 1.5 mi North 19.6 mph 29.9 mph 0.03 in Rain Light Freezing Rain
2:35 AM 5.0 °F -15.2 °F 1.4 °F 85% 29.97 in 1.2 mi North 19.6 mph 29.9 mph 0.10 in Snow Light Snow
2:55 AM 5.0 °F -17.1 °F 1.4 °F 85% 29.97 in 1.2 mi NNE 24.2 mph 31.1 mph 0.22 in Snow Light Snow
3:15 AM 5.0 °F -15.7 °F 1.4 °F 85% 29.98 in 1.5 mi NNE 20.7 mph 31.1 mph 0.05 in Rain Light Freezing Rain
3:35 AM 5.0 °F -16.7 °F 1.4 °F 85% 29.98 in 1.2 mi NNE 23.0 mph 27.6 mph 0.13 in Rain Light Freezing Rain
3:55 AM 5.0 °F -16.7 °F 1.4 °F 85% 29.97 in 1.5 mi North 23.0 mph 31.1 mph 0.20 in Rain Light Freezing Rain
4:15 AM 5.0 °F -15.2 °F 1.4 °F 85% 29.96 in 1.2 mi North 19.6 mph 29.9 mph 0.06 in Rain Light Freezing Rain
4:35 AM 5.0 °F -17.1 °F 1.4 °F 85% 29.96 in 1.5 mi North 24.2 mph 31.1 mph 0.11 in Rain Light Freezing Rain
4:55 AM 5.0 °F -16.2 °F 1.4 °F 85% 29.95 in 1.5 mi North 21.9 mph 29.9 mph 0.15 in Rain Light Freezing Rain
5:15 AM 5.0 °F -17.9 °F 1.4 °F 85% 29.94 in 1.2 mi NNE 26.5 mph - 0.04 in Rain Light Freezing Rain
5:35 AM 5.0 °F -15.7 °F 1.4 °F 85% 29.94 in 1.5 mi North 20.7 mph 28.8 mph 0.11 in Rain Light Freezing Rain
5:55 AM 5.0 °F -16.7 °F 1.4 °F 85% 29.94 in 1.8 mi North 23.0 mph 27.6 mph 0.15 in Rain Light Freezing Rain
6:15 AM 5.0 °F -16.7 °F 1.4 °F 85% 29.95 in 2.0 mi North 23.0 mph 28.8 mph 0.02 in Rain Light Freezing Rain
6:35 AM 5.0 °F -17.1 °F 1.4 °F 85% 29.95 in 1.8 mi North 24.2 mph 29.9 mph 0.05 in Rain Light Freezing Rain
6:55 AM 5.0 °F -17.1 °F -0.4 °F 78% 29.95 in 1.5 mi North 24.2 mph 31.1 mph 0.07 in Rain Light Freezing Rain
7:15 AM 5.0 °F -15.7 °F -0.4 °F 78% 29.94 in 1.5 mi North 20.7 mph 31.1 mph 0.03 in Rain Light Freezing Rain
7:35 AM 5.0 °F -16.2 °F -0.4 °F 78% 29.95 in 1.5 mi North 21.9 mph 31.1 mph 0.11 in Rain Light Freezing Rain
7:55 AM 5.0 °F -15.7 °F -0.4 °F 78% 29.94 in 1.5 mi North 20.7 mph 29.9 mph 0.18 in Rain Light Freezing Rain
8:15 AM 5.0 °F -16.7 °F -0.4 °F 78% 29.94 in 0.8 mi North 23.0 mph 31.1 mph 0.07 in Rain Light Freezing Rain
8:35 AM 5.0 °F -16.2 °F -0.4 °F 78% 29.95 in 1.0 mi North 21.9 mph 28.8 mph 0.12 in Rain Light Freezing Rain
8:55 AM 3.2 °F -18.6 °F -0.4 °F 85% 29.95 in 1.0 mi North 21.9 mph 27.6 mph 0.18 in Rain Light Freezing Rain
9:15 AM 3.2 °F -18.6 °F -0.4 °F 85% 29.94 in 1.0 mi North 21.9 mph 29.9 mph 0.02 in Snow Light Snow
9:35 AM 3.2 °F -18.6 °F -0.4 °F 85% 29.94 in 0.8 mi North 21.9 mph 28.8 mph 0.10 in Rain Light Freezing Rain
9:55 AM 3.2 °F -20.3 °F -0.4 °F 85% 29.94 in 0.8 mi North 26.5 mph 31.1 mph 0.19 in Rain Light Freezing Rain
10:15 AM 5.0 °F -16.7 °F -0.4 °F 78% 29.94 in 1.0 mi North 23.0 mph 31.1 mph 0.06 in Snow Light Snow
10:35 AM 5.0 °F -16.2 °F -0.4 °F 78% 29.94 in 1.0 mi North 21.9 mph 28.8 mph 0.16 in Snow Light Snow
10:55 AM 5.0 °F -16.7 °F -0.4 °F 78% 29.95 in 1.0 mi North 23.0 mph 31.1 mph 0.25 in Rain Light Freezing Rain
11:15 AM 5.0 °F -15.7 °F -0.4 °F 78% 29.94 in 1.0 mi North 20.7 mph 31.1 mph 0.06 in Rain Light Freezing Rain
11:35 AM 5.0 °F -15.7 °F -0.4 °F 78% 29.92 in 1.8 mi North 20.7 mph 31.1 mph 0.14 in Snow Light Snow
11:55 AM 5.0 °F -16.7 °F -0.4 °F 78% 29.91 in 1.0 mi North 23.0 mph 31.1 mph 0.21 in Snow Light Snow
12:15 PM 5.0 °F -16.7 °F -0.4 °F 78% 29.90 in 1.0 mi North 23.0 mph 31.1 mph 0.08 in Snow Light Snow
12:35 PM 5.0 °F -17.5 °F -0.4 °F 78% 29.89 in 1.0 mi North 25.3 mph 31.1 mph 0.16 in Rain Light Freezing Rain
12:55 PM 5.0 °F -17.1 °F -0.4 °F 78% 29.89 in 1.5 mi North 24.2 mph 32.2 mph 0.22 in Rain Light Freezing Rain
1:15 PM 5.0 °F -17.1 °F -0.4 °F 78% 29.88 in 1.2 mi North 24.2 mph 29.9 mph 0.05 in Rain Light Freezing Rain
1:35 PM 5.0 °F -18.3 °F -0.4 °F 78% 29.87 in 1.0 mi North 27.6 mph 33.4 mph 0.11 in Rain Light Freezing Rain
1:55 PM 5.0 °F -16.7 °F -0.4 °F 78% 29.87 in 1.0 mi North 23.0 mph 34.5 mph 0.20 in Snow Light Snow
2:15 PM 5.0 °F -17.1 °F -0.4 °F 78% 29.86 in 1.2 mi North 24.2 mph 29.9 mph 0.02 in Snow Light Snow
2:35 PM 5.0 °F -16.7 °F -0.4 °F 78% 29.86 in 1.8 mi North 23.0 mph 31.1 mph 0.04 in Rain Light Freezing Rain
2:55 PM 5.0 °F -15.2 °F -0.4 °F 78% 29.86 in 1.5 mi North 19.6 mph 31.1 mph 0.07 in Rain Light Freezing Rain
3:15 PM 5.0 °F -16.7 °F -0.4 °F 78% 29.86 in 1.8 mi North 23.0 mph 32.2 mph 0.01 in Rain Light Freezing Rain
3:35 PM 5.0 °F -16.2 °F -0.4 °F 78% 29.87 in 1.5 mi North 21.9 mph 34.5 mph 0.02 in Rain Light Freezing Rain
3:55 PM 5.0 °F -15.7 °F -0.4 °F 78% 29.87 in 1.2 mi North 20.7 mph 27.6 mph 0.03 in Rain Light Freezing Rain
4:15 PM 5.0 °F -17.1 °F -0.4 °F 78% 29.87 in 1.2 mi North 24.2 mph 34.5 mph N/A Rain Light Freezing Rain
4:35 PM 5.0 °F -16.7 °F -0.4 °F 78% 29.88 in 1.8 mi North 23.0 mph 31.1 mph 0.01 in Rain Light Freezing Rain
4:55 PM 5.0 °F -17.1 °F -0.4 °F 78% 29.87 in 1.5 mi North 24.2 mph 29.9 mph 0.02 in Rain Light Freezing Rain
5:15 PM 5.0 °F -18.7 °F -0.4 °F 78% 29.87 in 1.8 mi North 28.8 mph 33.4 mph N/A Rain Light Freezing Rain
5:35 PM 5.0 °F -17.5 °F -0.4 °F 78% 29.87 in 2.0 mi North 25.3 mph 32.2 mph 0.03 in Rain Light Freezing Rain
5:55 PM 5.0 °F -17.5 °F -0.4 °F 78% 29.86 in 2.0 mi North 25.3 mph 33.4 mph 0.05 in Rain Light Freezing Rain
6:15 PM 5.0 °F -16.7 °F -0.4 °F 78% 29.86 in 2.0 mi North 23.0 mph 33.4 mph 0.01 in Rain Light Freezing Rain
6:35 PM 5.0 °F -16.2 °F 1.4 °F 85% 29.86 in 2.0 mi North 21.9 mph 31.1 mph 0.05 in Rain Light Freezing Rain
6:55 PM 5.0 °F -16.2 °F -0.4 °F 78% 29.86 in 2.0 mi North 21.9 mph 34.5 mph 0.06 in Rain Light Freezing Rain
7:15 PM 5.0 °F -15.7 °F -0.4 °F 78% 29.86 in 3.0 mi NNW 20.7 mph 29.9 mph N/A Rain Light Freezing Rain
7:35 PM 5.0 °F -16.7 °F -0.4 °F 78% 29.87 in 3.0 mi NNW 23.0 mph 26.5 mph N/A Rain Light Freezing Rain
7:55 PM 5.0 °F -17.1 °F -0.4 °F 78% 29.87 in 2.5 mi NNW 24.2 mph 31.1 mph N/A Rain Light Freezing Rain
8:15 PM 5.0 °F -17.1 °F -0.4 °F 78% 29.87 in 2.5 mi NNW 24.2 mph 32.2 mph N/A Rain Light Freezing Rain
8:35 PM 5.0 °F -17.5 °F -0.4 °F 78% 29.87 in 2.5 mi NNW 25.3 mph 32.2 mph N/A Rain Light Freezing Rain
8:55 PM 5.0 °F -17.5 °F -0.4 °F 78% 29.87 in 2.5 mi NNW 25.3 mph 34.5 mph N/A Rain Light Freezing Rain
9:15 PM 5.0 °F -15.7 °F -0.4 °F 78% 29.87 in 3.0 mi NNW 20.7 mph 27.6 mph N/A Rain Light Freezing Rain
9:35 PM 5.0 °F -16.2 °F -0.4 °F 78% 29.87 in 3.0 mi NNW 21.9 mph 27.6 mph N/A Rain Light Freezing Rain
9:55 PM 5.0 °F -17.9 °F -0.4 °F 78% 29.87 in 3.0 mi NNW 26.5 mph 29.9 mph N/A Rain Light Freezing Rain
10:15 PM 5.0 °F -16.7 °F -0.4 °F 78% 29.87 in 4.0 mi NNW 23.0 mph 29.9 mph N/A   Haze
10:35 PM 5.0 °F -17.1 °F -0.4 °F 78% 29.87 in 5.0 mi NW 24.2 mph 33.4 mph N/A   Overcast
10:55 PM 3.2 °F -20.3 °F -0.4 °F 85% 29.87 in 5.0 mi NNW 26.5 mph 32.2 mph N/A   Overcast
11:15 PM 3.2 °F -19.5 °F -0.4 °F 85% 29.87 in 7.0 mi NNW 24.2 mph 29.9 mph N/A   Overcast
11:35 PM 3.2 °F -17.6 °F -2.2 °F 78% 29.87 in 7.0 mi NW 19.6 mph 28.8 mph N/A   Overcast
11:55 PM 1.4 °F -21.0 °F -2.2 °F 85% 29.87 in 9.0 mi NW 21.9 mph 28.8 mph N/A   Overcast